Stations météo

réclame
Mon MeteoGroup
Camborne, Grande-Bretagne (3808): Température de l'air & dewpoint: 13.11.2017 19:00:00 - 19.11.2017 19:00:00 (GMT)Camborne, Grande-Bretagne (3808): Vitesse du vent: 13.11.2017 19:00:00 - 19.11.2017 19:00:00 (GMT)Camborne, Grande-Bretagne (3808): Direction du vent: 13.11.2017 19:00:00 - 19.11.2017 19:00:00 (GMT)Camborne, Grande-Bretagne (3808): reduced air pressure: 13.11.2017 19:00:00 - 19.11.2017 19:00:00 (GMT)Camborne, Grande-Bretagne (3808): visibility: 13.11.2017 19:00:00 - 19.11.2017 19:00:00 (GMT)Camborne, Grande-Bretagne (3808): Ensoleillement: 13.11.2017 19:00:00 - 19.11.2017 19:00:00 (GMT)Camborne, Grande-Bretagne (3808): Quantités de précipitations: 13.11.2017 19:00:00 - 19.11.2017 19:00:00 (GMT)
Date & Time tt [°C] td [°C] ff [km/h] ff [knt] dd ppp [hPa] vv [km] sd [min] rr [mm]
19.11.2017 19:00:00 10,5 9,7 9 5 SSW 1024,0 15 0 0,0
19.11.2017 18:00:00 10,1 9,4 5 3 S 1024,0 15 0 0,0
19.11.2017 17:00:00 10,7 9,8 11 6 SW 1024,0 15 0 0,0
19.11.2017 16:00:00 11,6 10,6 13 7 WNW 1024,0 15 0 0,0
19.11.2017 15:00:00 11,9 11,2 15 8 W 1023,9 10 0 0,0
19.11.2017 14:00:00 11,6 10,8 8 4 SSW 1024,4 6 0 0,2
19.11.2017 13:00:00 11,6 10,5 9 5 S 1024,5 7 0 0,0
19.11.2017 12:00:00 11,5 10,0 8 4 SSE 1024,9 18 0 0,0
19.11.2017 11:00:00 11,0 9,8 4 2 SSE 1024,8 18 0 0,0
19.11.2017 10:00:00 10,3 9,1 8 4 SSE 1024,8 13 0 0,0
19.11.2017 09:00:00 9,9 9,6 8 4 ESE 1025,0 8 0 0,0
19.11.2017 08:00:00 10,1 10,0 8 4 ENE 1024,7 6 0 0,0
19.11.2017 07:00:00 10,6 10,4 8 4 ENE 1024,2 6 0 0,0
19.11.2017 06:00:00 11,0 11,0 4 2 NNE 1023,9 12 0 0,0
19.11.2017 05:00:00 11,4 11,2 11 6 NNW 1023,8 10 0 0,2
19.11.2017 04:00:00 11,7 11,5 15 8 NW 1023,5 8 0 0,0
19.11.2017 03:00:00 12,0 11,7 15 8 WNW 1023,8 5 0 0,0
19.11.2017 02:00:00 11,9 11,7 18 10 WNW 1023,7 5 0 -
19.11.2017 01:00:00 11,9 11,5 18 10 WNW 1024,0 6 0 0,0
19.11.2017 00:00:00 11,8 11,4 16 9 WNW 1024,2 6 - 0,0
18.11.2017 23:00:00 11,8 11,3 18 10 WNW 1024,1 7 0 0,0
18.11.2017 22:00:00 11,7 10,8 21 11 W 1024,2 12 0 0,0
18.11.2017 21:00:00 11,6 10,6 21 11 W 1024,3 10 0 0,0
18.11.2017 20:00:00 11,5 10,4 21 11 W 1024,3 12 0 0,0
18.11.2017 19:00:00 11,3 9,9 24 13 W 1024,5 15 0 0,0
18.11.2017 18:00:00 10,9 9,5 21 11 W 1024,7 13 0 0,0
18.11.2017 17:00:00 10,8 9,1 16 9 W 1024,8 19 0 0,0
18.11.2017 16:00:00 11,2 9,4 21 11 W 1025,0 16 12 0,0
18.11.2017 15:00:00 11,4 9,1 16 9 W 1025,2 23 6 0,0
18.11.2017 14:00:00 11,5 8,8 18 10 W 1025,6 27 0 0,0
18.11.2017 13:00:00 11,6 8,5 16 9 W 1026,2 25 0 0,0
18.11.2017 12:00:00 11,6 9,0 16 9 WSW 1026,5 26 6 0,0
18.11.2017 11:00:00 10,1 7,9 11 6 SW 1027,0 21 6 0,0
18.11.2017 10:00:00 9,2 7,0 11 6 SW 1027,2 20 36 0,0
18.11.2017 09:00:00 6,4 4,3 9 5 S 1027,1 26 0 0,0
18.11.2017 08:00:00 5,6 2,9 11 6 S 1027,0 30 0 0,0
18.11.2017 07:00:00 5,4 2,5 9 5 S 1027,0 30 0 0,0
18.11.2017 06:00:00 5,4 2,3 8 4 S 1027,2 25 0 0,0
18.11.2017 05:00:00 5,8 1,6 9 5 S 1027,6 30 0 0,0
18.11.2017 04:00:00 5,5 -0,1 8 4 S 1028,0 30 0 0,0
18.11.2017 03:00:00 5,4 -0,1 8 4 S 1028,1 25 0 0,0
18.11.2017 02:00:00 4,7 1,3 5 3 S 1028,5 25 0 0,0
18.11.2017 01:00:00 4,5 1,6 5 3 S 1028,8 25 0 0,0
18.11.2017 00:00:00 5,3 1,3 8 4 S 1029,1 25 - 0,0
17.11.2017 23:00:00 5,5 0,7 5 3 S 1029,5 20 0 0,0
17.11.2017 22:00:00 4,7 1,3 5 3 S 1029,5 18 0 0,0
17.11.2017 21:00:00 4,6 1,1 5 3 SE 1029,3 18 0 0,0
17.11.2017 20:00:00 5,4 -0,2 8 4 E 1029,7 20 0 0,0
17.11.2017 19:00:00 5,5 0,1 8 4 E 1029,5 30 0 0,0
17.11.2017 18:00:00 6,5 0,9 5 3 E 1029,6 30 0 0,0
17.11.2017 17:00:00 6,8 1,1 5 3 E 1029,3 25 24 0,0
17.11.2017 16:00:00 8,6 2,1 8 4 NNE 1029,3 25 60 0,0
17.11.2017 15:00:00 9,4 1,6 4 2 NNE 1029,3 30 60 0,0
17.11.2017 14:00:00 9,3 1,3 8 4 NNE 1029,6 40 60 0,0
17.11.2017 13:00:00 9,0 2,4 9 5 N 1030,3 40 60 0,0
17.11.2017 12:00:00 9,1 2,4 5 3 NNE 1030,7 40 60 0,0
17.11.2017 11:00:00 8,5 3,1 8 4 NE 1030,6 30 60 0,0
17.11.2017 10:00:00 6,9 1,9 8 4 ENE 1030,4 35 60 0,0
17.11.2017 09:00:00 4,7 1,2 8 4 NE 1030,5 35 54 0,0
17.11.2017 08:00:00 4,3 0,4 5 3 ENE 1030,1 40 0 0,0
17.11.2017 07:00:00 3,8 0,4 8 4 ENE 1029,9 25 0 0,0
17.11.2017 06:00:00 4,0 0,7 8 4 E 1030,0 25 0 -
17.11.2017 05:00:00 5,1 0,7 11 6 ENE 1029,9 25 0 0,0
17.11.2017 04:00:00 5,3 1,2 13 7 ENE 1029,8 25 0 0,0
17.11.2017 03:00:00 5,1 2,1 13 7 ENE 1029,8 25 0 0,0
17.11.2017 02:00:00 5,2 2,3 15 8 ENE 1029,8 22 0 -
17.11.2017 01:00:00 5,0 2,1 11 6 ENE 1029,5 22 0 0,0
17.11.2017 00:00:00 6,1 2,8 9 5 ENE 1029,2 22 - 0,0
16.11.2017 23:00:00 7,9 3,4 13 7 ENE 1028,9 22 0 0,0
16.11.2017 22:00:00 9,1 3,2 16 9 NNE 1028,7 20 0 0,0
16.11.2017 21:00:00 9,4 3,9 16 9 NNE 1028,3 20 0 0,0
16.11.2017 20:00:00 9,5 5,2 21 11 NNE 1027,7 22 0 0,0
16.11.2017 19:00:00 10,0 6,3 11 6 NNE 1027,1 22 0 0,0
16.11.2017 18:00:00 10,2 6,4 21 11 NNE 1026,5 16 0 0,0
16.11.2017 17:00:00 10,6 7,8 24 13 NNE 1025,9 20 0 0,0
16.11.2017 16:00:00 10,7 9,6 22 12 NNE 1025,5 12 0 0,0
16.11.2017 15:00:00 11,0 10,5 18 10 N 1024,7 6 0 0,0
16.11.2017 14:00:00 12,1 10,2 16 9 WNW 1024,4 23 0 0,0
16.11.2017 13:00:00 12,3 9,9 15 8 W 1024,4 25 0 0,0
16.11.2017 12:00:00 12,5 10,3 16 9 WNW 1024,6 30 30 0,0
16.11.2017 11:00:00 12,4 10,0 15 8 W 1024,2 35 60 0,0
16.11.2017 10:00:00 11,8 10,0 8 4 WSW 1023,9 30 60 0,0
16.11.2017 09:00:00 10,4 8,7 5 3 S 1023,5 30 42 0,0
16.11.2017 08:00:00 9,5 8,6 8 4 SW 1023,3 30 0 0,0
16.11.2017 07:00:00 9,5 8,5 9 5 SW 1022,7 13 0 0,0
16.11.2017 06:00:00 9,7 8,3 8 4 SSW 1022,4 20 0 0,0
16.11.2017 05:00:00 9,6 8,3 5 3 SSW 1022,2 20 0 0,0
16.11.2017 04:00:00 9,0 8,1 8 4 SSW 1022,3 15 0 0,0
16.11.2017 03:00:00 9,6 8,2 9 5 S 1022,2 18 0 0,0
16.11.2017 02:00:00 9,9 8,4 5 3 SSW 1022,6 20 0 0,0
16.11.2017 01:00:00 10,3 8,9 8 4 SSW 1023,0 20 0 0,0
16.11.2017 00:00:00 10,4 9,1 4 2 SSW 1023,4 20 - 0,0
15.11.2017 23:00:00 10,3 9,1 5 3 SSW 1023,3 15 0 0,0
15.11.2017 22:00:00 10,1 9,1 4 2 S 1023,6 15 0 0,0
15.11.2017 21:00:00 10,6 9,2 5 3 SSW 1023,7 15 0 0,0
15.11.2017 20:00:00 10,7 9,4 5 3 S 1023,7 20 0 0,0
15.11.2017 19:00:00 10,7 9,6 5 3 S 1023,7 15 0 0,0
15.11.2017 18:00:00 10,8 9,7 5 3 S 1023,7 15 0 0,0
15.11.2017 17:00:00 11,3 10,0 8 4 SSW 1023,9 15 0 0,0
15.11.2017 16:00:00 11,8 10,1 11 6 SW 1024,2 18 0 0,0
15.11.2017 15:00:00 12,2 9,9 11 6 SW 1024,3 20 0 0,0
15.11.2017 14:00:00 12,3 10,1 13 7 SSW 1024,4 25 0 0,0
15.11.2017 13:00:00 12,6 10,0 11 6 SSW 1024,7 25 0 0,0
15.11.2017 12:00:00 12,2 9,6 13 7 SSW 1025,0 25 0 0,0
15.11.2017 11:00:00 12,1 10,7 11 6 SSW 1025,5 20 0 0,0
15.11.2017 10:00:00 11,4 10,5 13 7 SW 1025,5 18 0 0,0
15.11.2017 09:00:00 10,8 9,7 8 4 S 1025,6 20 12 0,0
15.11.2017 08:00:00 10,3 9,3 8 4 S 1025,3 25 0 0,0
15.11.2017 07:00:00 10,1 9,4 8 4 S 1025,1 20 0 0,0
15.11.2017 06:00:00 10,6 9,7 5 3 SSW 1025,0 15 0 0,0
15.11.2017 05:00:00 10,9 10,0 11 6 WSW 1024,8 12 0 0,0
15.11.2017 04:00:00 10,5 9,9 8 4 SSW 1024,9 17 0 0,0
15.11.2017 03:00:00 10,6 10,0 9 5 SW 1025,1 12 0 0,0
15.11.2017 02:00:00 10,6 10,0 8 4 SW 1025,2 5 0 0,0
15.11.2017 01:00:00 10,7 10,1 9 5 SW 1025,4 15 0 0,0
15.11.2017 00:00:00 10,7 10,3 9 5 WSW 1025,6 15 - 0,2
14.11.2017 23:00:00 10,9 10,3 11 6 SW 1025,5 5 0 0,0
14.11.2017 22:00:00 11,0 10,1 11 6 SW 1025,5 10 0 0,0
14.11.2017 21:00:00 10,9 10,3 11 6 SW 1025,5 10 0 0,0
14.11.2017 20:00:00 10,8 10,1 13 7 WSW 1025,4 10 0 0,0
14.11.2017 19:00:00 10,8 9,8 15 8 SW 1025,3 8 0 0,0
14.11.2017 18:00:00 10,7 9,6 15 8 SW 1025,2 15 0 0,0
14.11.2017 17:00:00 11,0 9,1 18 10 SW 1025,1 12 0 -
14.11.2017 16:00:00 11,3 9,0 16 9 WSW 1024,9 25 0 0,0
14.11.2017 15:00:00 11,4 9,2 13 7 WSW - 25 0 0,0
14.11.2017 14:00:00 12,4 9,4 18 10 WSW 1025,2 20 0 0,0
14.11.2017 13:00:00 12,0 9,0 13 7 SW 1025,4 30 12 0,0
14.11.2017 12:00:00 11,2 9,0 16 9 SW 1025,8 30 0 0,0
14.11.2017 11:00:00 10,8 8,5 13 7 WSW 1026,2 20 0 0,0
14.11.2017 10:00:00 10,4 8,1 13 7 WSW 1026,1 20 0 0,0
14.11.2017 09:00:00 9,9 7,6 13 7 SW 1025,9 18 0 0,0
14.11.2017 08:00:00 10,3 6,9 15 8 WSW 1025,7 20 0 0,0
14.11.2017 07:00:00 9,7 7,2 11 6 WSW 1025,4 15 0 0,0
14.11.2017 06:00:00 9,4 6,5 9 5 WSW 1025,4 19 0 0,0
14.11.2017 05:00:00 9,2 6,2 11 6 SW 1025,6 21 0 0,0
14.11.2017 04:00:00 9,1 6,1 11 6 WSW 1025,8 18 0 -
14.11.2017 03:00:00 8,5 6,0 11 6 SW 1026,3 19 0 0,0
14.11.2017 02:00:00 8,5 5,4 11 6 SW 1026,9 25 0 0,0
14.11.2017 01:00:00 8,3 5,3 11 6 WSW 1027,2 23 0 0,0
14.11.2017 00:00:00 7,7 5,0 9 5 SW 1027,4 30 - 0,0
13.11.2017 23:00:00 7,1 4,6 9 5 SW 1027,7 25 0 0,0
13.11.2017 22:00:00 7,1 4,1 9 5 SSW 1028,0 25 0 0,0
13.11.2017 21:00:00 7,4 4,2 9 5 SW 1028,0 20 0 0,0
13.11.2017 20:00:00 7,8 3,6 9 5 SW 1028,3 25 0 0,0
13.11.2017 19:00:00 7,6 3,7 5 3 SSW 1028,6 20 0 0,0

tt = Température de l'air
td = dewpoint
ff = Vitesse du vent
dd = Direction du vent
ppp = reduced air pressure
vv = visibility
sd = Ensoleillement
rr = Quantités de précipitations

stations d'obs. à proximité